| time (UTC) | temp F | wind direction | speed MPH | gust MPH | rain 1hr in | rain 24hr in | rain mn in | humidity % | barometer mb |
| 20260905234604 | 91 | 99 | 1.0 | 2.0 | 0.00 | 0.00 | 0.00 | 63 | 1011.0 |
| 20260905234425 | 92 | 106 | 1.0 | 3.0 | 0.00 | 0.00 | 0.00 | 63 | 1011.0 |
| 20260905234204 | 92 | 113 | 1.0 | 3.0 | 0.00 | 0.00 | 0.00 | 63 | 1011.0 |
| 20260905234004 | 92 | 114 | 1.0 | 3.0 | 0.00 | 0.00 | 0.00 | 63 | 1011.1 |
| 20260905233825 | 92 | 115 | 1.0 | 3.0 | 0.00 | 0.00 | 0.00 | 62 | 1011.1 |
| 20260905233604 | 93 | 119 | 1.0 | 3.0 | 0.00 | 0.00 | 0.00 | 62 | 1011.0 |
| 20260905233404 | 93 | 122 | 1.0 | 3.0 | 0.00 | 0.00 | 0.00 | 62 | 1010.9 |
| 20260905233225 | 93 | 115 | 1.0 | 2.0 | 0.00 | 0.00 | 0.00 | 62 | 1010.9 |
| 20260905233025 | 93 | 106 | 1.0 | 2.0 | 0.00 | 0.00 | 0.00 | 62 | 1011.0 |
| 20260905232804 | 93 | 103 | 0.0 | 2.0 | 0.00 | 0.00 | 0.00 | 62 | 1010.9 |
| 20260905232604 | 94 | 102 | 0.0 | 2.0 | 0.00 | 0.00 | 0.00 | 62 | 1010.9 |
| 20260905232404 | 94 | 98 | 0.0 | 2.0 | 0.00 | 0.00 | 0.00 | 61 | 1010.9 |
| 20260905232204 | 94 | 90 | 0.0 | 2.0 | 0.00 | 0.00 | 0.00 | 61 | 1010.9 |
| 20260905232004 | 94 | 45 | 0.0 | 1.0 | 0.00 | 0.00 | 0.00 | 61 | 1011.0 |
| 20260905231804 | 94 | 16 | 0.0 | 1.0 | 0.00 | 0.00 | 0.00 | 61 | 1011.0 |
| 20260905231604 | 94 | 14 | 0.0 | 1.0 | 0.00 | 0.00 | 0.00 | 60 | 1011.0 |
| 20260905231404 | 94 | 14 | 1.0 | 1.0 | 0.00 | 0.00 | 0.00 | 60 | 1011.0 |
| 20260905231225 | 95 | 25 | 1.0 | 1.0 | 0.00 | 0.00 | 0.00 | 60 | 1011.0 |
| 20260905231025 | 95 | 98 | 1.0 | 5.0 | 0.00 | 0.00 | 0.00 | 60 | 1011.0 |
| 20260905230804 | 95 | 98 | 1.0 | 5.0 | 0.00 | 0.00 | 0.00 | 59 | 1011.0 |
| 20260905230604 | 95 | 91 | 1.0 | 5.0 | 0.00 | 0.00 | 0.00 | 59 | 1011.0 |
| 20260905230404 | 95 | 91 | 1.0 | 5.0 | 0.00 | 0.00 | 0.00 | 59 | 1010.9 |
| 20260905230204 | 95 | 85 | 0.0 | 5.0 | 0.00 | 0.00 | 0.00 | 58 | 1010.8 |
| 20260905230004 | 96 | 66 | 0.0 | 5.0 | 0.00 | 0.00 | 0.00 | 57 | 1010.8 |
| 20260905225804 | 96 | 44 | 0.0 | 2.0 | 0.00 | 0.00 | 0.00 | 56 | 1010.7 |
| 20260905225604 | 96 | 42 | 0.0 | 2.0 | 0.00 | 0.00 | 0.00 | 56 | 1010.7 |
| 20260905225404 | 96 | 41 | 0.0 | 2.0 | 0.00 | 0.00 | 0.00 | 56 | 1010.7 |
| 20260905225204 | 96 | 42 | 0.0 | 2.0 | 0.00 | 0.00 | 0.00 | 56 | 1010.7 |
| 20260905225004 | 96 | 28 | 0.0 | 2.0 | 0.00 | 0.00 | 0.00 | 55 | 1010.7 |
| 20260905224804 | 96 | 10 | 0.0 | 1.0 | 0.00 | 0.00 | 0.00 | 55 | 1010.7 |
| 20260905224604 | 97 | 19 | 0.0 | 1.0 | 0.00 | 0.00 | 0.00 | 54 | 1010.7 |
| 20260905224404 | 97 | 25 | 0.0 | 1.0 | 0.00 | 0.00 | 0.00 | 54 | 1010.7 |
| 20260905224204 | 97 | 349 | 0.0 | 1.0 | 0.00 | 0.00 | 0.00 | 54 | 1010.7 |
| 20260905224004 | 97 | 344 | 0.0 | 1.0 | 0.00 | 0.00 | 0.00 | 53 | 1010.6 |
| 20260905223825 | 97 | 315 | 0.0 | 1.0 | 0.00 | 0.00 | 0.00 | 53 | 1010.6 |
| 20260905223604 | 97 | 277 | 0.0 | 1.0 | 0.00 | 0.00 | 0.00 | 53 | 1010.6 |
| 20260905223404 | 97 | 282 | 0.0 | 2.0 | 0.00 | 0.00 | 0.00 | 53 | 1010.7 |
| 20260905223204 | 97 | 283 | 0.0 | 3.0 | 0.00 | 0.00 | 0.00 | 52 | 1010.7 |
| 20260905223004 | 98 | 287 | 1.0 | 3.0 | 0.00 | 0.00 | 0.00 | 52 | 1010.8 |
| 20260905222804 | 98 | 285 | 1.0 | 3.0 | 0.00 | 0.00 | 0.00 | 52 | 1010.8 |
| 20260905222625 | 98 | 283 | 1.0 | 3.0 | 0.00 | 0.00 | 0.00 | 52 | 1010.7 |
| 20260905222425 | 98 | 284 | 1.0 | 5.0 | 0.00 | 0.00 | 0.00 | 52 | 1010.7 |
| 20260905222204 | 98 | 284 | 1.0 | 5.0 | 0.00 | 0.00 | 0.00 | 52 | 1010.7 |
| 20260905222025 | 98 | 281 | 1.0 | 5.0 | 0.00 | 0.00 | 0.00 | 52 | 1010.8 |
| 20260905221804 | 98 | 279 | 1.0 | 5.0 | 0.00 | 0.00 | 0.00 | 52 | 1010.7 |
| 20260905221625 | 98 | 280 | 0.0 | 5.0 | 0.00 | 0.00 | 0.00 | 51 | 1010.8 |
| 20260905221404 | 98 | 279 | 0.0 | 4.0 | 0.00 | 0.00 | 0.00 | 51 | 1010.7 |
| 20260905221204 | 98 | 282 | 0.0 | 4.0 | 0.00 | 0.00 | 0.00 | 51 | 1010.8 |
| 20260905221004 | 97 | 283 | 0.0 | 4.0 | 0.00 | 0.00 | 0.00 | 51 | 1010.8 |
| 20260905220804 | 97 | 292 | 0.0 | 4.0 | 0.00 | 0.00 | 0.00 | 52 | 1010.7 |
| 20260905220604 | 97 | 26 | 0.0 | 3.0 | 0.00 | 0.00 | 0.00 | 54 | 1010.7 |
| 20260905220404 | 97 | 38 | 0.0 | 1.0 | 0.00 | 0.00 | 0.00 | 53 | 1010.6 |
| 20260905220204 | 97 | 37 | 0.0 | 2.0 | 0.00 | 0.00 | 0.00 | 54 | 1010.5 |
| 20260905220004 | 97 | 34 | 0.0 | 2.0 | 0.00 | 0.00 | 0.00 | 53 | 1010.5 |
| 20260905215804 | 97 | 34 | 0.0 | 2.0 | 0.00 | 0.00 | 0.00 | 53 | 1010.5 |
| 20260905215604 | 97 | 33 | 0.0 | 2.0 | 0.00 | 0.00 | 0.00 | 53 | 1010.5 |
| 20260905215425 | 97 | 26 | 0.0 | 2.0 | 0.00 | 0.00 | 0.00 | 53 | 1010.6 |
| 20260905215204 | 96 | 309 | 0.0 | 1.0 | 0.00 | 0.00 | 0.00 | 53 | 1010.6 |
| 20260905215025 | 96 | 349 | 0.0 | 1.0 | 0.00 | 0.00 | 0.00 | 54 | 1010.6 |
| 20260905214825 | 96 | 296 | 0.0 | 1.0 | 0.00 | 0.00 | 0.00 | 54 | 1010.6 |
| 20260905214604 | 96 | 295 | 0.0 | 1.0 | 0.00 | 0.00 | 0.00 | 55 | 1010.6 |
| 20260905214404 | 96 | 292 | 0.0 | 1.0 | 0.00 | 0.00 | 0.00 | 55 | 1010.7 |
| 20260905214204 | 97 | 286 | 0.0 | 1.0 | 0.00 | 0.00 | 0.00 | 55 | 1010.7 |
| 20260905214004 | 97 | 285 | 0.0 | 1.0 | 0.00 | 0.00 | 0.00 | 55 | 1010.7 |
| 20260905213804 | 97 | 340 | 0.0 | 2.0 | 0.00 | 0.00 | 0.00 | 55 | 1010.7 |
| 20260905213604 | 97 | 324 | 0.0 | 2.0 | 0.00 | 0.00 | 0.00 | 55 | 1010.7 |
| 20260905213404 | 97 | 324 | 0.0 | 2.0 | 0.00 | 0.00 | 0.00 | 55 | 1010.8 |
| 20260905213204 | 97 | 8 | 0.0 | 2.0 | 0.00 | 0.00 | 0.00 | 55 | 1010.8 |
| 20260905213004 | 97 | 31 | 0.0 | 2.0 | 0.00 | 0.00 | 0.00 | 54 | 1010.9 |
| 20260905212804 | 97 | 36 | 0.0 | 2.0 | 0.00 | 0.00 | 0.00 | 54 | 1010.9 |
| 20260905212604 | 97 | 44 | 0.0 | 3.0 | 0.00 | 0.00 | 0.00 | 55 | 1010.9 |
| 20260905212404 | 97 | 45 | 0.0 | 3.0 | 0.00 | 0.00 | 0.00 | 55 | 1010.9 |
| 20260905212204 | 97 | 43 | 0.0 | 3.0 | 0.00 | 0.00 | 0.00 | 54 | 1010.8 |
| 20260905212004 | 97 | 50 | 0.0 | 3.0 | 0.00 | 0.00 | 0.00 | 55 | 1010.8 |
| 20260905211804 | 97 | 49 | 0.0 | 3.0 | 0.00 | 0.00 | 0.00 | 54 | 1010.8 |
| 20260905211604 | 97 | 52 | 0.0 | 1.0 | 0.00 | 0.00 | 0.00 | 54 | 1010.9 |
| 20260905211404 | 97 | 47 | 0.0 | 1.0 | 0.00 | 0.00 | 0.00 | 54 | 1010.8 |
| 20260905211204 | 97 | 44 | 0.0 | 1.0 | 0.00 | 0.00 | 0.00 | 54 | 1010.8 |
| 20260905211004 | 97 | 39 | 0.0 | 1.0 | 0.00 | 0.00 | 0.00 | 54 | 1010.9 |
| 20260905210803 | 97 | 39 | 0.0 | 1.0 | 0.00 | 0.00 | 0.00 | 54 | 1010.9 |
| 20260905210604 | 97 | 37 | 1.0 | 2.0 | 0.00 | 0.00 | 0.00 | 54 | 1010.9 |
| 20260905210404 | 97 | 41 | 1.0 | 2.0 | 0.00 | 0.00 | 0.00 | 54 | 1010.9 |
| 20260905210204 | 97 | 44 | 1.0 | 2.0 | 0.00 | 0.00 | 0.00 | 53 | 1010.9 |
| 20260905210004 | 97 | 43 | 1.0 | 2.0 | 0.00 | 0.00 | 0.00 | 52 | 1010.9 |
| 20260905205804 | 97 | 42 | 1.0 | 3.0 | 0.00 | 0.00 | 0.00 | 53 | 1011.0 |
| 20260905205604 | 97 | 44 | 1.0 | 3.0 | 0.00 | 0.00 | 0.00 | 53 | 1011.0 |
| 20260905205425 | 97 | 46 | 0.0 | 3.0 | 0.00 | 0.00 | 0.00 | 53 | 1011.0 |
| 20260905205204 | 97 | 44 | 0.0 | 3.0 | 0.00 | 0.00 | 0.00 | 53 | 1011.0 |
| 20260905205004 | 97 | 46 | 0.0 | 3.0 | 0.00 | 0.00 | 0.00 | 53 | 1011.1 |
| 20260905204804 | 97 | 50 | 0.0 | 2.0 | 0.00 | 0.00 | 0.00 | 53 | 1011.1 |
| 20260905204604 | 97 | 51 | 0.0 | 2.0 | 0.00 | 0.00 | 0.00 | 54 | 1011.2 |
| 20260905204424 | 97 | 42 | 0.0 | 2.0 | 0.00 | 0.00 | 0.00 | 53 | 1011.2 |
| 20260905204204 | 97 | 300 | 0.0 | 2.0 | 0.00 | 0.00 | 0.00 | 52 | 1011.2 |
| 20260905204003 | 97 | 300 | 0.0 | 2.0 | 0.00 | 0.00 | 0.00 | 52 | 1011.2 |
| 20260905203825 | 97 | 301 | 0.0 | 2.0 | 0.00 | 0.00 | 0.00 | 52 | 1011.3 |
| 20260905203603 | 98 | 301 | 0.0 | 2.0 | 0.00 | 0.00 | 0.00 | 52 | 1011.3 |
| 20260905203404 | 98 | 282 | 0.0 | 2.0 | 0.00 | 0.00 | 0.00 | 52 | 1011.3 |
| 20260905203204 | 98 | 0 | 0.0 | 0.0 | 0.00 | 0.00 | 0.00 | 52 | 1011.3 |